Weather History for Val Marie Southeast, SK

Change the Weather History Date:

Monday, May 13, 2013

  Actual Average Record
Temperature  
Mean Temperature 68 °F -  
Max Temperature 86 °F - - ()
Min Temperature 49 °F - - ()
Cooling Degree Days 2    
Growing Degree Days 18 (Base 50)    
Moisture  
Dew Point 42 °F    
Average Humidity 40    
Maximum Humidity 85    
Minimum Humidity 10    
Precipitation  
Precipitation 0.00 in - - ()
Sea Level Pressure  
Sea Level Pressure 29.72 in    
Wind  
Wind Speed 12 mph ()    
Max Wind Speed 36 mph    
Max Gust Speed 56 mph    
T = Trace of Precipitation, MM = Missing Value Source: Averaged Metar Reports

Daily Weather History Graph

Daily Weather History Graph

Search for Another Location

Airport:

Trip Planner

Search our weather history database for the weather conditions in past years. The results will help you decide how hot, cold, wet, or windy it might be!

Date:

Astronomy

May. 13, 2013 Rise Set
Actual Time 5:30 AM CST 8:44 PM CST
Civil Twilight 4:52 AM CST 9:22 PM CST
Nautical Twilight 4:02 AM CST 10:12 PM CST
Astronomical Twilight 2:59 AM CST 11:16 PM CST
Moon 8:16 AM CST (5/13) 11:55 PM CST (5/13)
Length of Visible Light 16h 29m
Length of Day
15h 13m
Waxing Crescent, 12% of the Moon is Illuminated
May 13
Waxing Crescent
May 17
First Quarter
May 24
Full
May 31
Last Quarter
Jun 8
New

Hourly Weather History & Observations

Time (CST) Temp. Dew Point Humidity Pressure Visibility Wind Dir Wind Speed Gust Speed Precip Events Conditions
12:00 AM 68 °F 41 °F 26% 29.70 in - West 13.8 mph - -  
12:00 AM 68.4 °F 41.4 °F 37% 29.70 in - West 13.8 mph - N/A   Unknown
1:00 AM 66.4 °F 41.9 °F 41% 29.72 in - West 9.2 mph - N/A   Unknown
2:00 AM 59.9 °F 42.8 °F 53% 29.72 in - West 8.1 mph - N/A   Unknown
3:00 AM 55 °F 43 °F 53% 29.75 in - NW 8.1 mph - -  
3:00 AM 55.4 °F 42.8 °F 63% 29.75 in - NW 8.1 mph - N/A   Unknown
4:00 AM 55.8 °F 41.5 °F 59% 29.77 in - NW 6.9 mph - N/A   Unknown
5:00 AM 57.0 °F 42.4 °F 58% 29.78 in - NW 10.4 mph - N/A   Unknown
6:00 AM 50 °F 42 °F 65% 29.80 in - SW 8.1 mph - -  
6:00 AM 49.8 °F 41.7 °F 74% 29.80 in - SW 8.1 mph - N/A   Unknown
7:00 AM 53.8 °F 45.0 °F 72% 29.82 in - SSW 4.6 mph - N/A   Unknown
8:00 AM 63.7 °F 46.6 °F 54% 29.81 in - West 10.4 mph - N/A   Unknown
9:00 AM 71 °F 43 °F 25% 29.81 in - WNW 11.5 mph - -  
9:00 AM 70.7 °F 42.8 °F 36% 29.81 in - WNW 11.5 mph - N/A   Unknown
10:00 AM 73.0 °F 41.2 °F 32% 29.81 in - NW 15.0 mph - N/A   Unknown
11:00 AM 78.8 °F 42.1 °F 27% 29.77 in - West 24.2 mph 34.5 mph N/A   Unknown
12:00 PM 81 °F 39 °F 13% 29.76 in - West 24.2 mph - -  
12:00 PM 81.1 °F 39.0 °F 22% 29.76 in - West 24.2 mph 35.7 mph N/A   Unknown
1:00 PM 83.3 °F 36.7 °F 19% 29.74 in - West 28.8 mph 40.3 mph N/A   Unknown
3:00 PM 86 °F 38 °F 10% 29.71 in - West 23.0 mph - -  
3:00 PM 86.2 °F 38.3 °F 18% 29.71 in - West 23.0 mph 29.9 mph N/A   Unknown
4:00 PM 84.6 °F 33.1 °F 16% 29.68 in - West 29.9 mph 42.6 mph N/A   Unknown
6:00 PM 83 °F 36 °F 10% 29.63 in - West 21.9 mph - -  
6:00 PM 83.5 °F 36.5 °F 19% 29.63 in - West 21.9 mph 28.8 mph N/A   Unknown
7:00 PM 82.0 °F 37.8 °F 21% 29.59 in - WNW 15.0 mph - N/A   Unknown
8:00 PM 71.6 °F 38.3 °F 30% 29.56 in - WNW 6.9 mph - N/A   Unknown
9:00 PM 64 °F 44 °F 36% 29.55 in - NNW 5.8 mph - -  
9:00 PM 63.7 °F 43.7 °F 48% 29.55 in - NNW 5.8 mph - N/A   Unknown
10:00 PM 61.2 °F 51.8 °F 71% 29.70 in - West 35.7 mph 56.4 mph N/A   Unknown
11:00 PM 57.7 °F 53.4 °F 85% 29.65 in - WSW 5.8 mph - N/A   Unknown